This is the latest recevied weather packets stored in our database for station/object VK3CG. If no packets are shown the sender has not sent any weather packets the latest 10 day(s).
| Time | Temp. | Humidity | Pressure | Rain* | Wind** | Luminosity | Snow |
|---|---|---|---|---|---|---|---|
| 1777887005 | 11.11° C | 68% | 1024 hPa | 0 mm | - | 0 W/m² | - |
| 1777886104 | 11.11° C | 68% | 1023.8 hPa | 0 mm | - | 0 W/m² | - |
| 1777885204 | 11.67° C | 69% | 1023.7 hPa | 0 mm | - | 0 W/m² | - |
| 1777884303 | 11.11° C | 69% | 1023.6 hPa | 0 mm | - | 0 W/m² | - |
| 1777883403 | 11.11° C | 68% | 1023.3 hPa | 0.51 mm | - | 0 W/m² | - |
| 1777882502 | 11.67° C | 68% | 1023 hPa | 0.51 mm | - | 0 W/m² | - |
| 1777881602 | 11.67° C | 68% | 1022.8 hPa | 0.51 mm | - | 0 W/m² | - |
| 1777880702 | 11.67° C | 68% | 1022.5 hPa | 0.51 mm | - | 0 W/m² | - |
| 1777879801 | 11.67° C | 67% | 1022.5 hPa | 0 mm | - | 0 W/m² | - |
| 1777878960 | 11.67° C | 67% | 1022.6 hPa | 0 mm | - | 0 W/m² | - |
| 1777878060 | 12.22° C | 67% | 1022.4 hPa | 0 mm | - | 7 W/m² | - |
| 1777877172 | 12.22° C | 67% | 1022.4 hPa | 0 mm | - | 11 W/m² | - |
| 1777876278 | 12.22° C | 67% | 1022 hPa | 0 mm | - | 98 W/m² | - |
| 1777875359 | 12.22° C | 66% | 1022 hPa | 0 mm | - | 74 W/m² | - |
| 1777874459 | 12.22° C | 66% | 1021.8 hPa | 0 mm | - | 37 W/m² | - |
| 1777873557 | 12.22° C | 66% | 1021.8 hPa | 0 mm | - | 105 W/m² | - |
| 1777872667 | 12.22° C | 66% | 1021.7 hPa | 0 mm | - | 53 W/m² | - |
| 1777871756 | 12.78° C | 65% | 1021.6 hPa | 0 mm | - | 139 W/m² | - |
| 1777870888 | 12.78° C | 65% | 1021.5 hPa | 0 mm | - | 181 W/m² | - |
| 1777869959 | 12.78° C | 63% | 1021.4 hPa | 0 mm | - | 127 W/m² | - |
| 1777869060 | 12.78° C | 63% | 1021.2 hPa | 0 mm | - | 158 W/m² | - |
| 1777868154 | 12.78° C | 63% | 1021.3 hPa | 0 mm | - | 128 W/m² | - |
| 1777867262 | 12.22° C | 64% | 1021.6 hPa | 0 mm | - | 192 W/m² | - |
| 1777866353 | 12.22° C | 63% | 1021.6 hPa | 0 mm | - | 141 W/m² | - |
| 1777865449 | 12.78° C | 62% | 1021.9 hPa | 0 mm | - | 65 W/m² | - |
* Rain latest hour (hover to see other rain measurements)
** Current wind speed in m/s (hover to see current wind gust speed)